FLOCK 4P-10 (44808 NORAD) Tracking and Keplerian Element Data

This shows tracking and keplerian element data for the satellite.

Feedback or suggestion? Click here.




ElementValue
Catalog44808
NameFLOCK 4P-10
Epoch Orbit852
Epoch Day22.32199891
Epoch Year2020
RAAN84.1194
Inclination97.5166
Eccentricity0.0015029
Argument of Perigee56.2005
Mean Anonmoly304.0658
Mean Motion15.19256811
Decay Rate5.36E-06
L11 44808U 19081E 20022.32199891 .00000536 00000-0 28685-4 0 9998
L22 44808 97.5166 84.1194 0015029 56.2005 304.0658 15.19256811 8522

Live tracking and technical data element details for FLOCK 4P-10 (NORAD 44808). FLOCK 4P-10 can be tracked NOW for your location showing map with azimuth and elevation plus other details from your city location.

Track the satellite on the map from your city or location and see movement details for azimuth, elevation, latitude, longitude, range, height, and movement on the map or in text.







IsCatalogInMostPopularTable: catalog: 44808, numindb: 9
Update: records affected: 1



GetName: 44808 FLOCK 4P-10

Hit Count: updated at: Fri, 24 Jan 2020 11:35:35 GMT